Lid_Strength_Index
4 4 4 4 4 4 4 4 4 4 4 4 3 3 2 2 2 4 7 4 4 2 3 4 4 4 5 5 4 4 8 9 8 7 6 4 5 3 3 3 3 3 4 3 2
4 4 4 4 4 4 4 4 4 4 4 4 4 3 3 3 3 5 3 1 1 3 4 5 5 5 7 6 5 6 8 8 5 5 5 4 4 4 4 5 4 4 3 2 2
4 4 4 4 4 4 4 4 4 4 4 4 4 4 3 3 6 5 0 1 2 3 4 4 4 5 8 7 6 7 8 6 5 4 4 4 4 3 4 5 4 5 4 3 3
4 4 4 4 4 4 3 3 3 3 2 2 2 2 2 4 10 3 0 0 1 2 3 5 5 6 8 9 6 8 6 6 5 4 5 5 4 4 4 4 3 3 3 3 3
5 4 4 4 4 3 3 3 1 1 1 1 1 1 2 5 4 2 -1 -1 1 3 5 5 6 6 8 8 7 8 7 6 5 5 5 4 5 4 4 3 2 3 3 3 3
4 4 4 4 3 3 2 1 1 1 1 1 1 1 3 7 1 0 2 2 2 3 4 3 5 5 7 7 7 6 6 6 5 5 5 6 6 5 4 3 3 3 4 3 3
4 4 3 3 3 2 1 1 1 1 1 1 1 2 5 5 1 -1 -0 1 2 3 4 3 3 5 6 8 6 6 8 7 6 6 6 5 7 7 4 3 3 4 3 3 3
4 3 3 3 2 1 1 1 1 1 1 1 1 3 7 1 -0 1 0 0 0 1 2 3 3 4 6 6 7 9 8 10 7 6 6 6 9 6 4 3 4 4 4 3 3
3 3 3 3 2 1 1 1 1 1 1 1 3 4 7 0 2 1 -0 2 2 1 2 3 3 5 6 9 10 10 11 10 9 6 6 7 8 5 5 5 4 4 4 4 3
3 3 3 2 1 1 1 1 1 2 2 3 4 7 4 5 3 1 -0 1 3 2 4 4 6 8 8 10 14 12 12 10 9 7 7 8 7 5 5 5 4 4 4 4 4
3 3 3 2 1 1 2 1 4 6 5 6 6 6 5 3 1 2 1 3 2 4 8 6 10 11 9 9 9 9 10 10 8 6 8 8 7 6 5 5 4 4 4 4 3
3 3 2 1 1 1 2 5 5 5 8 5 5 4 3 3 5 3 1 5 5 8 6 9 12 7 7 8 9 9 9 10 8 6 8 8 8 6 5 5 4 4 4 4 3
3 3 2 1 1 2 3 4 3 4 9 7 5 6 5 4 5 5 3 5 6 7 7 10 8 6 7 8 10 10 9 10 8 8 8 8 8 7 6 5 5 4 3 3 3
3 3 2 1 3 1 4 2 3 4 12 9 7 5 4 4 6 3 2 4 6 9 7 7 6 7 8 9 9 11 8 8 8 10 12 8 12 8 7 6 5 5 4 3 3
3 3 2 2 1 4 2 2 4 5 19 9 6 2 4 6 6 6 2 4 7 8 7 8 9 8 10 9 7 9 8 8 8 10 9 10 10 9 7 7 6 5 4 3 3
3 3 2 0 1 2 1 4 6 13 19 10 6 8 8 6 7 5 5 3 4 7 7 7 6 7 7 6 7 6 7 8 8 9 12 10 10 10 9 8 6 5 4 3 3
3 3 1 -0 3 1 3 7 13 17 9 11 10 8 8 11 10 9 8 8 9 14 12 9 8 7 6 8 7 7 8 12 13 13 13 9 10 8 6 6 5 5 4 3 3
4 3 1 -0 -0 1 5 10 17 13 13 8 9 8 11 10 11 10 10 9 7 8 11 11 16 11 6 7 9 8 9 12 15 15 12 9 11 9 5 4 4 4 3 3 3
4 -0 -0 -1 -1 1 7 14 15 13 11 12 10 13 13 11 11 12 11 9 7 7 14 11 12 9 7 6 7 8 10 7 10 10 12 10 9 6 5 6 5 4 4 3 3
3 1 2 -1 -1 2 9 13 12 11 11 12 14 11 14 11 13 12 12 8 8 6 7 8 13 9 8 6 6 7 7 10 10 14 15 12 11 10 8 7 5 5 5 4 3
2 4 1 -1 -0 5 12 11 10 8 8 13 12 13 11 11 11 12 11 8 7 7 6 8 10 12 8 9 9 9 10 9 9 10 13 14 12 7 7 6 6 5 5 5 4
3 5 0 -1 6 7 11 9 8 9 7 11 12 11 12 10 10 9 10 9 6 6 9 9 12 14 11 7 7 7 9 8 11 11 10 11 12 5 6 6 6 6 6 5 4
5 4 0 1 11 11 8 8 8 9 9 10 11 10 9 11 13 9 8 6 5 6 9 9 12 15 13 9 7 8 8 8 8 8 11 13 13 6 7 8 7 7 6 5 4
5 8 4 3 4 8 10 9 10 7 8 9 9 9 10 11 9 11 10 7 6 7 7 8 11 12 15 11 8 9 8 8 8 11 10 11 11 9 9 9 8 7 5 5 5
5 7 5 8 7 8 7 8 11 12 8 8 10 10 11 14 13 11 9 8 7 8 8 10 13 9 9 8 8 9 9 8 9 8 10 10 10 9 9 9 8 6 5 5 5
7 8 6 7 6 7 8 9 11 10 10 11 11 10 10 12 12 11 8 9 10 9 10 8 10 9 10 8 8 9 8 8 8 8 8 8 10 8 7 7 7 6 6 6 5
4 4 6 6 6 8 9 8 9 8 9 8 9 10 11 10 8 7 6 7 7 9 10 11 12 13 15 9 9 11 9 8 8 8 7 11 9 7 9 8 7 6 6 6 5